Location: *
(40.7765°S, 106.5327°E)
Time: 07:09:36
(UTC+00:00)

GPS 2-04 Rocket1 - Visible Passes

Search period start: 06 October 2022 00:00
Search period end: 16 October 2022 00:00
Orbit: 401 x 500 km, 35.6° (Epoch: 05 October)

Date Brightness Start Highest point End Pass type
(mag) Time Alt. Az. Time Alt. Az. Time Alt. Az.
09 Oct 4.6 12:05:03 10° NNE 12:05:58 11° NNE 12:06:01 11° NNE visible
10 Oct 4.6 13:01:58 10° NW 13:03:04 17° NNW 13:03:04 17° NNW visible
11 Oct 3.7 12:23:02 10° NW 12:25:53 24° NNE 12:26:19 23° NNE visible
12 Oct 3.9 11:44:02 10° NW 11:46:44 21° NNE 11:49:24 10° ENE visible
12 Oct 4.6 13:21:44 10° WNW 13:22:57 19° NW 13:22:57 19° NW visible
13 Oct 3.1 12:42:33 10° WNW 12:45:45 34° N 12:45:51 34° N visible
14 Oct 3.3 12:03:19 10° WNW 12:06:27 33° N 12:08:38 17° ENE visible
14 Oct 5.1 13:41:40 10° WNW 13:42:09 13° WNW 13:42:09 13° WNW visible
15 Oct 3.7 13:02:18 10° WNW 13:04:48 29° NNW 13:04:48 29° NNW visible
